User: anonymous   Login
Location: Joplin
(37.0842°N, 94.5131°W)
Time: 23:26:38
(UTC-06:00)
Language:

Envisat - Orbit

View from above orbital plane
View from above orbital plane
View from above satellite
View from above satellite

Ground track
Ground track

The orbit data is extracted from the following two-line orbital elements,

1 27386U 02009A   18324.67245375  .00000003  00000-0  14629-4 0  9993
2 27386  98.1695 351.2350 0001308  96.8938  11.3946 14.37934700876014
Epoch (UTC): 20 November 2018 16:08:20
Eccentricity: 0.0001308
inclination: 98.1695°
perigee height: 764 km
apogee height: 766 km
right ascension of ascending node: 351.2350°
argument of perigee: 96.8938°
revolutions per day: 14.37934700
mean anomaly at epoch: 11.3946°
orbit number at epoch: 87601

The dashed part of the orbit path shows where the satellite is in the earth's shadow,  

DLR